When you browse on this site, cookies collect data to enhance your experience and personalize the content and advertising you see.
Visit our Privacy Policy to learn more. By continuing to use the site, you agree to this use of cookies and data.
  • In Sweden
  • List of Countries
  • For 7 days
  • Water Temperature
  • Satellite Maps
  • Weather Map
  • Weather Widgets
  • user-avatar
    Login

    Hourly Weather Omelyanivka

    Today, 20 April, Saturday

    Time Temperature Precipitation Wind Pressure Humidity
    00:00 +7°C° 0 mm 1 mps 760 mmHg 69%
    01:00 +7°C° 0 mm 1 mps 759 mmHg 69%
    02:00 +6°C° 0 mm 1 mps 759 mmHg 70%
    03:00 +6°C° 0 mm 1 mps 759 mmHg 70%
    04:00 +5°C° 0 mm 0 mps 759 mmHg 71%
    05:00 +4°C° 0 mm 0 mps 759 mmHg 71%
    06:00 +6°C° 0 mm 0 mps 759 mmHg 65%
    07:00 +9°C° 0 mm 1 mps 759 mmHg 59%
    08:00 +11°C° 0 mm 1 mps 759 mmHg 53%
    09:00 +12°C° 0 mm 0 mps 759 mmHg 47%
    10:00 +13°C° 0 mm 0 mps 758 mmHg 41%
    11:00 +15°C° 0 mm 0 mps 758 mmHg 35%
    12:00 +15°C° 0 mm 0 mps 758 mmHg 33%
    13:00 +15°C° 0 mm 0 mps 757 mmHg 32%
    14:00 +16°C° 0 mm 0 mps 757 mmHg 31%
    15:00 +15°C° 0 mm 0 mps 756 mmHg 32%
    16:00 +16°C° 0 mm 1 mps 756 mmHg 33%
    17:00 +16°C° 0 mm 1 mps 756 mmHg 34%
    18:00 +14°C° 0 mm 1 mps 756 mmHg 39%
    19:00 +13°C° 0 mm 2 mps 756 mmHg 43%
    20:00 +12°C° 0 mm 2 mps 756 mmHg 48%
    21:00 +10°C° 0 mm 2 mps 755 mmHg 51%
    22:00 +10°C° 0 mm 3 mps 755 mmHg 53%
    23:00 +10°C° 0 mm 3 mps 755 mmHg 56%

    Tomorrow, 21 April, Sunday

    Time Temperature Precipitation Wind Pressure Humidity
    00:00 +9°C° 0 mm 3 mps 755 mmHg 60%
    01:00 +9°C° 0 mm 3 mps 755 mmHg 65%
    02:00 +8°C° 0 mm 2 mps 755 mmHg 69%
    03:00 +8°C° 0 mm 2 mps 755 mmHg 73%
    04:00 +7°C° 0 mm 2 mps 755 mmHg 77%
    05:00 +7°C° 0 mm 2 mps 754 mmHg 81%
    06:00 +8°C° 0 mm 3 mps 754 mmHg 77%
    07:00 +9°C° 0 mm 3 mps 755 mmHg 73%
    08:00 +10°C° 0 mm 3 mps 755 mmHg 70%
    09:00 +11°C° 0.1 mm 4 mps 755 mmHg 63%
    10:00 +13°C° 0.1 mm 5 mps 754 mmHg 57%
    11:00 +14°C° 0.1 mm 6 mps 754 mmHg 50%
    12:00 +14°C° 0.2 mm 6 mps 754 mmHg 50%
    13:00 +14°C° 0.2 mm 6 mps 754 mmHg 49%
    14:00 +15°C° 0.2 mm 6 mps 754 mmHg 49%
    15:00 +14°C° 0.2 mm 6 mps 754 mmHg 51%
    16:00 +13°C° 0.2 mm 6 mps 754 mmHg 54%
    17:00 +13°C° 0.2 mm 5 mps 754 mmHg 56%
    18:00 +12°C° 0 mm 5 mps 755 mmHg 60%
    19:00 +11°C° 0 mm 4 mps 755 mmHg 63%
    20:00 +9°C° 0 mm 3 mps 755 mmHg 67%
    21:00 +9°C° 0 mm 3 mps 756 mmHg 67%
    22:00 +8°C° 0 mm 3 mps 756 mmHg 66%
    23:00 +8°C° 0 mm 3 mps 756 mmHg 66%

    Day after tomorrow, 22 April, Monday

    Time Temperature Precipitation Wind Pressure Humidity
    00:00 +7°C° 0 mm 3 mps 757 mmHg 66%
    01:00 +7°C° 0 mm 3 mps 757 mmHg 66%
    02:00 +5°C° 0 mm 3 mps 757 mmHg 67%
    03:00 +5°C° 0 mm 3 mps 757 mmHg 67%
    04:00 +5°C° 0 mm 2 mps 758 mmHg 68%
    05:00 +5°C° 0 mm 2 mps 758 mmHg 69%
    06:00 +7°C° 0 mm 2 mps 758 mmHg 63%
    07:00 +9°C° 0 mm 3 mps 759 mmHg 57%
    08:00 +11°C° 0 mm 3 mps 759 mmHg 52%
    09:00 +12°C° 0 mm 3 mps 759 mmHg 46%
    10:00 +13°C° 0 mm 4 mps 759 mmHg 41%
    11:00 +14°C° 0 mm 4 mps 759 mmHg 36%
    12:00 +14°C° 0 mm 4 mps 759 mmHg 36%
    13:00 +14°C° 0 mm 4 mps 759 mmHg 36%
    14:00 +14°C° 0 mm 4 mps 759 mmHg 37%
    15:00 +14°C° 0 mm 3 mps 759 mmHg 38%
    16:00 +14°C° 0 mm 3 mps 759 mmHg 40%
    17:00 +14°C° 0 mm 3 mps 759 mmHg 42%
    18:00 +12°C° 0 mm 3 mps 759 mmHg 46%
    19:00 +12°C° 0 mm 2 mps 759 mmHg 50%
    20:00 +10°C° 0 mm 2 mps 760 mmHg 54%
    21:00 +9°C° 0 mm 2 mps 760 mmHg 56%
    22:00 +9°C° 0 mm 2 mps 760 mmHg 58%
    23:00 +8°C° 0 mm 2 mps 760 mmHg 59%

    23 April, Tuesday

    Time Temperature Precipitation Wind Pressure Humidity
    00:00 +8°C° 0 mm 2 mps 761 mmHg 59%
    01:00 +9°C° 0 mm 2 mps 761 mmHg 59%
    02:00 +9°C° 0 mm 2 mps 761 mmHg 59%
    03:00 +9°C° 0 mm 2 mps 761 mmHg 59%
    04:00 +8°C° 0 mm 2 mps 761 mmHg 60%
    05:00 +8°C° 0 mm 2 mps 761 mmHg 60%
    06:00 +10°C° 0 mm 2 mps 761 mmHg 57%
    07:00 +11°C° 0 mm 3 mps 761 mmHg 54%
    08:00 +12°C° 0 mm 3 mps 761 mmHg 50%
    09:00 +13°C° 0 mm 4 mps 761 mmHg 46%
    10:00 +14°C° 0 mm 4 mps 761 mmHg 41%
    11:00 +15°C° 0 mm 5 mps 761 mmHg 37%
    12:00 +15°C° 0 mm 5 mps 761 mmHg 37%
    13:00 +15°C° 0 mm 5 mps 761 mmHg 37%
    14:00 +15°C° 0 mm 5 mps 761 mmHg 38%
    15:00 +15°C° 0 mm 4 mps 761 mmHg 39%
    16:00 +15°C° 0 mm 4 mps 760 mmHg 40%
    17:00 +15°C° 0 mm 4 mps 760 mmHg 41%
    18:00 +13°C° 0 mm 4 mps 760 mmHg 46%
    19:00 +12°C° 0 mm 3 mps 760 mmHg 52%
    20:00 +10°C° 0 mm 3 mps 761 mmHg 58%
    21:00 +10°C° 0 mm 3 mps 761 mmHg 60%
    22:00 +9°C° 0 mm 3 mps 761 mmHg 62%
    23:00 +8°C° 0 mm 2 mps 761 mmHg 64%

    24 April, Wednesday

    Time Temperature Precipitation Wind Pressure Humidity
    00:00 +8°C° 0 mm 2 mps 761 mmHg 66%
    01:00 +8°C° 0 mm 2 mps 761 mmHg 67%
    02:00 +7°C° 0 mm 2 mps 761 mmHg 68%
    03:00 +7°C° 0 mm 2 mps 761 mmHg 69%
    04:00 +6°C° 0 mm 2 mps 761 mmHg 70%
    05:00 +6°C° 0 mm 2 mps 761 mmHg 71%
    06:00 +8°C° 0 mm 3 mps 762 mmHg 64%
    07:00 +10°C° 0 mm 4 mps 762 mmHg 57%
    08:00 +12°C° 0 mm 4 mps 762 mmHg 50%
    09:00 +13°C° 0 mm 5 mps 762 mmHg 46%
    10:00 +15°C° 0 mm 5 mps 762 mmHg 42%
    11:00 +16°C° 0 mm 5 mps 762 mmHg 38%
    12:00 +16°C° 0 mm 5 mps 761 mmHg 38%
    13:00 +17°C° 0 mm 5 mps 761 mmHg 38%
    14:00 +17°C° 0 mm 5 mps 761 mmHg 38%
    15:00 +17°C° 0 mm 5 mps 760 mmHg 39%
    16:00 +17°C° 0 mm 5 mps 760 mmHg 41%
    17:00 +17°C° 0 mm 5 mps 760 mmHg 42%
    18:00 +15°C° 0 mm 4 mps 760 mmHg 48%
    19:00 +13°C° 0 mm 4 mps 760 mmHg 54%
    20:00 +11°C° 0 mm 3 mps 760 mmHg 59%
    21:00 +11°C° 0 mm 3 mps 761 mmHg 61%
    22:00 +10°C° 0 mm 3 mps 761 mmHg 63%
    23:00 +10°C° 0 mm 4 mps 761 mmHg 64%

    25 April, Thursday

    Time Temperature Precipitation Wind Pressure Humidity
    00:00 +9°C° 0 mm 3 mps 761 mmHg 65%
    01:00 +9°C° 0 mm 3 mps 761 mmHg 66%
    02:00 +8°C° 0 mm 3 mps 761 mmHg 67%
    03:00 +8°C° 0 mm 3 mps 761 mmHg 69%
    04:00 +7°C° 0 mm 3 mps 761 mmHg 71%
    05:00 +7°C° 0 mm 3 mps 761 mmHg 73%
    06:00 +9°C° 0 mm 3 mps 761 mmHg 68%
    07:00 +10°C° 0 mm 3 mps 761 mmHg 63%
    08:00 +12°C° 0 mm 3 mps 761 mmHg 59%
    09:00 +14°C° 0 mm 4 mps 761 mmHg 53%
    10:00 +17°C° 0 mm 4 mps 760 mmHg 47%
    11:00 +17°C° 0 mm 5 mps 760 mmHg 41%
    12:00 +19°C° 0 mm 5 mps 760 mmHg 40%
    13:00 +19°C° 0 mm 5 mps 759 mmHg 39%
    14:00 +20°C° 0 mm 5 mps 759 mmHg 39%
    15:00 +19°C° 0 mm 4 mps 759 mmHg 41%
    16:00 +18°C° 0 mm 4 mps 758 mmHg 44%
    17:00 +18°C° 0 mm 3 mps 758 mmHg 47%
    18:00 +17°C° 0 mm 3 mps 758 mmHg 49%
    19:00 +16°C° 0 mm 3 mps 758 mmHg 52%
    20:00 +14°C° 0 mm 3 mps 758 mmHg 54%
    21:00 +13°C° 0 mm 3 mps 758 mmHg 56%
    22:00 +13°C° 0 mm 3 mps 758 mmHg 59%
    23:00 +12°C° 0 mm 3 mps 758 mmHg 61%
    Show more